Wind_Speed
42 38 40 39 39 39 36 39 35 31 36 34 32 35 39 39 38 39 43 45 45 44 43 43 43 43 47 53 54 54 49 44 41 39 40 41 41 44 45 47 46 43 43 44
36 38 43 41 40 39 33 34 34 28 30 29 32 35 38 42 45 44 42 41 43 50 52 53 55 56 56 52 47 42 41 41 40 40 42 42 44 44 44 46 47 44 45 39
34 35 38 45 40 36 32 36 34 32 31 34 38 43 38 36 36 38 40 42 43 44 45 47 49 50 47 44 43 43 42 41 41 41 43 44 45 45 46 48 47 45 41 40
36 38 41 43 35 32 34 34 32 32 36 39 40 35 35 36 37 39 41 43 45 47 49 49 49 48 47 48 49 48 44 40 39 40 42 42 46 48 49 49 46 40 38 36
32 33 37 36 28 25 30 31 32 33 31 31 32 33 34 36 34 34 34 35 33 31 28 28 30 30 30 28 25 24 17 18 21 20 21 23 26 31 36 37 34 33 33 32
29 32 31 26 27 29 28 25 28 28 29 30 28 27 27 26 22 17 21 12 11 15 14 11 7 4 4 4 3 5 12 7 6 6 10 13 12 13 15 20 27 27 27 26
24 25 23 22 25 23 21 19 24 26 25 24 20 22 18 18 20 19 15 16 14 6 7 7 6 4 5 9 9 7 7 6 11 12 5 7 10 10 14 11 2 10 11 11
24 22 22 19 20 19 20 20 20 22 20 16 19 17 19 18 15 13 14 4 5 6 5 5 6 10 12 11 8 4 5 4 7 8 8 9 11 12 13 15 20 20 18 12
24 17 17 15 18 19 17 14 13 13 12 17 14 14 10 9 7 10 8 6 6 6 9 10 10 8 8 6 7 9 8 5 4 4 7 8 10 12 13 16 16 16 16 17
18 17 16 17 14 13 12 11 11 9 9 11 10 8 11 8 9 10 9 12 12 10 8 7 5 10 9 6 3 2 3 5 6 8 10 12 14 15 18 19 20 19 19 19
17 18 17 16 13 12 11 11 10 7 6 4 3 8 10 10 12 15 13 11 9 9 10 8 5 3 2 1 2 3 5 7 9 12 14 16 17 19 20 21 23 24 25 25
17 18 16 14 12 12 10 13 9 8 6 7 7 11 12 11 11 11 12 12 10 7 6 5 4 2 2 1 2 4 6 9 13 17 21 22 22 23 24 24 25 26 28 30
16 16 16 15 13 11 11 12 11 11 10 10 12 13 15 16 15 14 11 9 8 7 7 5 5 3 1 3 4 7 10 14 19 23 24 23 23 26 29 30 30 31 34 35
14 14 16 15 14 12 10 11 11 10 9 14 15 15 15 15 14 12 10 9 8 7 6 5 2 4 6 8 11 14 18 21 25 26 27 27 30 32 33 36 40 42 43 44
16 16 16 16 17 13 10 11 12 9 14 15 16 17 15 14 13 11 10 9 9 7 6 5 6 8 11 13 15 18 22 25 29 30 32 34 35 37 40 44 48 51 53 54
19 19 19 17 18 19 13 14 14 12 17 16 17 19 18 17 14 11 10 10 9 8 7 7 9 12 15 18 20 23 27 29 32 35 36 37 40 44 47 51 54 56 56 59
25 25 24 23 20 21 21 17 17 17 19 19 20 20 18 16 14 14 13 13 10 9 9 12 14 17 19 22 25 28 30 33 36 39 41 44 47 50 53 56 57 59 62 65
33 32 31 29 26 23 25 22 20 20 20 23 22 21 18 18 18 16 14 13 12 13 13 16 20 22 23 25 28 31 34 36 40 43 45 48 51 52 54 58 61 64 65 67
37 39 38 34 30 26 25 26 24 22 24 27 24 22 20 19 19 17 16 16 17 16 18 20 24 26 27 29 32 35 38 42 45 48 50 50 53 58 61 65 69 71 72 72
33 32 31 32 32 30 28 26 24 24 26 29 26 24 22 20 20 18 18 20 19 19 21 24 27 30 31 33 35 40 44 47 50 50 51 54 58 63 67 71 74 76 78 79
21 25 27 30 30 30 28 26 23 25 26 27 26 25 22 21 21 19 21 21 21 23 26 28 31 33 34 37 40 45 48 50 51 52 57 61 66 70 74 76 77 79 77 71
12 18 23 24 26 27 27 25 24 23 26 25 24 24 22 21 21 22 22 22 24 27 30 33 35 35 38 42 45 49 51 51 53 58 62 66 70 74 77 78 80 75 69 67
9 14 10 18 24 26 24 23 25 26 26 25 25 22 22 22 22 23 23 24 27 30 33 37 38 39 43 46 49 51 52 54 59 63 67 71 74 76 79 79 74 69 67 67
15 11 12 16 21 21 19 19 22 22 22 22 20 20 20 22 23 23 24 27 30 33 37 39 40 43 46 49 51 52 55 58 62 67 70 74 75 78 77 72 68 67 67 66
10 9 12 16 15 14 15 15 17 18 18 19 19 19 21 21 21 24 27 29 32 37 39 40 43 46 49 51 52 56 60 63 67 69 71 74 77 76 71 67 65 66 65 64
11 10 10 12 13 14 15 15 16 17 18 20 20 20 19 20 23 27 29 33 36 38 40 42 45 49 50 52 55 59 63 66 67 69 72 75 74 69 65 64 64 65 64 63
8 11 14 17 18 17 17 19 21 21 21 20 20 21 22 24 28 30 32 35 36 39 42 45 49 50 52 55 59 63 65 66 67 70 72 71 68 64 62 62 63 63 63 63
Wind_Direction
254 261 269 274 262 264 260 254 261 258 258 257 272 284 290 290 289 286 280 274 277 282 279 272 272 273 279 282 289 289 284 281 278 275 270 268 265 263 264 268 274 278 287 296
259 258 261 257 263 259 253 252 257 255 263 274 279 279 284 283 285 285 285 284 281 279 281 280 279 279 283 283 278 274 275 276 277 275 273 271 272 268 266 272 278 285 294 289
251 239 253 253 258 254 252 255 261 263 270 273 275 284 282 278 279 282 284 284 282 280 276 273 271 270 270 272 275 276 274 272 271 271 271 270 271 271 271 276 283 289 292 285
251 245 242 249 252 249 249 254 260 267 270 273 275 274 277 277 276 276 277 278 278 279 279 278 276 275 277 276 275 275 273 270 269 269 270 273 272 272 274 278 281 284 282 277
244 241 241 243 246 249 255 257 259 262 266 266 269 274 274 275 277 279 281 283 285 285 283 283 282 278 271 265 260 260 264 272 270 275 276 274 274 276 276 276 272 271 275 265
238 238 239 243 250 251 257 260 262 261 263 270 274 277 275 278 284 284 300 289 295 283 290 280 267 210 183 172 155 245 276 250 218 230 259 249 251 249 245 255 259 261 262 260
236 241 241 237 241 249 254 251 257 266 270 278 278 274 264 271 279 283 279 276 290 252 252 249 239 223 180 170 163 167 188 223 261 264 294 358 9 348 353 6 207 215 226 235
237 247 237 235 239 247 250 252 259 269 276 291 288 265 264 271 263 262 277 239 220 237 212 187 158 146 141 140 131 137 95 109 67 43 10 4 355 351 346 353 351 358 1 357
242 230 232 240 243 247 248 259 256 261 264 288 276 279 227 234 246 234 190 201 205 154 130 133 139 113 98 92 85 79 63 47 22 360 347 347 351 347 340 340 337 342 339 338
217 224 234 238 234 240 251 244 248 252 278 292 292 207 206 213 171 179 193 160 157 165 162 138 103 95 86 85 91 66 14 360 12 14 9 2 355 346 338 332 331 329 324 318
226 230 226 223 229 233 252 232 242 252 292 286 220 180 182 171 167 162 170 188 169 139 123 120 127 165 180 92 11 17 15 12 9 4 356 347 338 333 327 323 320 319 317 314
220 224 223 225 224 235 241 231 235 240 264 229 182 160 167 184 204 190 156 144 145 164 171 183 190 211 215 312 9 5 360 351 348 344 339 331 326 323 323 322 322 320 317 314
224 224 222 220 222 229 238 236 236 249 248 222 212 191 175 162 154 154 165 181 193 202 209 208 212 219 307 322 330 330 328 331 332 331 331 330 329 329 329 328 326 322 318 315
225 225 224 226 229 233 238 230 234 227 212 197 185 179 174 173 177 182 195 207 210 204 210 225 245 297 315 324 326 325 326 331 330 327 325 324 324 325 324 322 320 317 315 313
232 234 234 233 227 228 231 225 222 214 202 194 192 191 191 191 197 209 213 214 211 227 247 267 297 318 321 319 316 320 324 328 326 324 324 325 323 321 318 319 320 318 316 312
242 242 239 238 233 224 224 224 218 216 209 205 202 198 202 205 212 225 227 224 233 249 263 291 310 316 312 311 315 321 324 322 323 325 322 321 321 321 320 318 317 316 314 313
245 242 239 237 234 223 219 223 223 225 219 210 205 207 208 216 228 235 236 236 251 267 290 296 297 301 304 311 318 322 324 323 323 321 321 321 321 320 319 319 318 316 316 314
247 242 239 237 237 227 217 217 219 219 221 213 210 212 214 225 235 242 243 248 266 280 287 295 300 303 309 315 320 322 322 322 321 321 322 322 321 319 319 319 319 317 315 313
247 242 237 233 225 221 219 216 214 215 222 214 211 216 220 231 237 245 254 258 266 282 294 300 303 305 307 316 319 318 320 320 321 323 323 320 319 320 320 321 320 318 316 314
240 234 227 221 215 208 214 217 210 214 222 217 211 218 224 233 240 248 259 263 272 287 297 301 302 301 310 316 316 317 317 318 320 320 321 321 322 322 322 322 321 320 317 315
220 217 213 206 203 203 205 210 215 218 222 220 218 221 228 235 245 255 264 271 282 292 298 298 299 307 315 315 315 315 316 317 318 319 321 322 323 323 323 322 321 319 318 316
201 196 196 201 199 199 201 210 213 217 217 217 220 225 233 241 249 258 268 274 286 293 296 299 303 312 312 312 314 314 316 317 319 320 321 322 322 322 323 322 320 319 318 317
181 167 195 204 198 198 205 213 214 217 222 221 222 228 239 247 256 265 271 282 290 292 297 300 307 309 310 312 314 316 317 319 319 320 321 321 323 323 322 321 320 320 319 318
169 185 197 202 204 209 212 209 207 212 215 218 229 235 244 254 260 269 279 285 290 294 296 303 308 307 310 314 316 318 319 319 318 319 321 322 323 322 322 321 321 322 321 320
203 202 208 204 202 209 215 221 222 222 224 229 235 242 251 259 268 274 282 286 288 294 301 305 306 310 314 316 317 319 319 319 319 321 322 323 323 323 323 322 323 323 323 322
215 227 227 224 224 224 220 228 232 229 229 231 240 250 258 266 274 279 282 287 293 298 302 306 310 313 314 316 318 318 319 319 321 322 323 323 323 323 323 324 324 325 325 324
208 218 226 230 232 232 231 232 233 234 237 243 254 258 262 269 273 278 285 292 297 301 306 309 312 313 315 316 317 318 319 321 321 322 323 324 324 324 324 325 327 328 328 327
Height
5575 5575 5577 5579 5579 5579 5578 5579 5579 5581 5578 5580 5580 5578 5574 5572 5571 5569 5568 5568 5567 5568 5569 5569 5569 5570 5572 5573 5569 5568 5567 5567 5566 5565 5565 5565 5565 5566 5566 5566 5567 5565 5560 5557
5566 5567 5569 5571 5570 5570 5572 5572 5572 5573 5573 5575 5574 5572 5569 5565 5561 5560 5560 5560 5561 5560 5560 5561 5561 5561 5561 5559 5559 5559 5558 5558 5557 5556 5554 5554 5555 5555 5555 5555 5555 5551 5548 5546
5557 5560 5560 5560 5562 5563 5565 5565 5564 5566 5569 5567 5566 5564 5561 5559 5558 5556 5553 5551 5550 5550 5549 5549 5548 5548 5548 5548 5547 5548 5548 5549 5548 5547 5546 5546 5545 5545 5545 5544 5541 5539 5538 5536
5547 5549 5549 5550 5554 5556 5557 5557 5558 5558 5558 5558 5557 5556 5554 5552 5550 5549 5547 5544 5542 5540 5538 5536 5534 5533 5533 5534 5535 5537 5538 5538 5538 5537 5536 5535 5534 5534 5533 5531 5530 5529 5529 5527
5537 5539 5540 5543 5548 5549 5548 5550 5552 5551 5551 5550 5549 5549 5545 5542 5541 5539 5537 5534 5532 5529 5526 5524 5522 5522 5523 5524 5526 5527 5528 5528 5529 5528 5527 5526 5525 5523 5522 5521 5521 5520 5519 5519
5529 5530 5534 5539 5540 5540 5541 5543 5541 5542 5542 5542 5542 5540 5537 5535 5534 5533 5531 5528 5526 5524 5523 5521 5521 5521 5521 5522 5523 5524 5524 5524 5525 5525 5524 5523 5522 5520 5518 5516 5513 5512 5512 5511
5523 5525 5529 5533 5532 5533 5536 5540 5535 5534 5535 5535 5535 5533 5531 5530 5529 5529 5528 5526 5524 5523 5523 5522 5521 5521 5521 5521 5522 5523 5523 5523 5522 5522 5521 5519 5517 5515 5513 5509 5507 5505 5503 5501
5518 5521 5524 5527 5528 5530 5531 5530 5530 5529 5528 5527 5526 5526 5526 5525 5524 5524 5525 5524 5523 5523 5523 5522 5522 5522 5522 5521 5521 5521 5521 5521 5521 5520 5520 5518 5516 5513 5512 5509 5505 5501 5499 5496
5514 5517 5519 5521 5523 5523 5524 5525 5525 5525 5525 5524 5521 5519 5520 5521 5521 5522 5523 5523 5523 5523 5524 5524 5523 5521 5521 5521 5521 5521 5522 5522 5522 5520 5518 5517 5514 5513 5512 5509 5506 5503 5500 5497
5509 5512 5514 5516 5518 5519 5520 5521 5521 5521 5521 5520 5517 5516 5518 5519 5519 5521 5523 5524 5524 5524 5524 5523 5522 5522 5522 5523 5523 5522 5522 5522 5520 5518 5516 5514 5512 5510 5508 5505 5503 5500 5498 5496
5505 5508 5510 5512 5514 5516 5516 5517 5518 5518 5518 5517 5516 5516 5518 5518 5520 5521 5522 5523 5523 5523 5523 5523 5523 5523 5523 5523 5522 5522 5520 5519 5518 5516 5514 5512 5510 5508 5505 5503 5500 5496 5494 5492
5501 5503 5506 5509 5511 5512 5513 5514 5515 5515 5516 5516 5516 5517 5518 5519 5520 5521 5522 5522 5523 5523 5523 5523 5523 5523 5523 5521 5520 5520 5519 5518 5516 5514 5511 5508 5505 5502 5500 5498 5494 5491 5488 5485
5498 5500 5503 5505 5507 5509 5510 5511 5511 5512 5512 5513 5514 5516 5516 5517 5519 5520 5522 5523 5523 5523 5523 5523 5523 5522 5521 5520 5519 5518 5517 5515 5513 5510 5506 5503 5500 5497 5493 5490 5487 5484 5481 5478
5495 5497 5499 5501 5503 5505 5506 5507 5509 5509 5510 5511 5513 5514 5516 5517 5519 5520 5521 5522 5521 5521 5522 5521 5520 5519 5518 5517 5516 5514 5512 5510 5507 5504 5501 5498 5494 5491 5487 5482 5477 5473 5471 5467
5491 5493 5495 5497 5499 5501 5503 5504 5506 5507 5508 5510 5511 5513 5515 5516 5518 5519 5519 5519 5520 5520 5520 5519 5518 5516 5515 5513 5512 5510 5507 5504 5501 5497 5493 5489 5484 5480 5476 5472 5467 5462 5457 5452
5486 5488 5490 5492 5494 5497 5499 5501 5503 5504 5505 5507 5509 5511 5513 5515 5516 5517 5517 5518 5518 5518 5517 5515 5513 5512 5511 5510 5508 5505 5501 5498 5494 5489 5484 5480 5475 5470 5465 5460 5455 5449 5443 5436
5479 5481 5484 5486 5488 5491 5493 5496 5498 5500 5502 5504 5506 5508 5510 5512 5513 5514 5515 5515 5515 5514 5513 5512 5510 5508 5507 5504 5501 5497 5493 5489 5484 5479 5474 5469 5464 5458 5452 5447 5441 5434 5427 5420
5471 5473 5476 5479 5482 5484 5487 5490 5493 5495 5497 5500 5502 5504 5506 5508 5510 5511 5511 5511 5510 5510 5509 5507 5505 5503 5500 5496 5492 5488 5484 5479 5474 5469 5463 5457 5451 5445 5439 5433 5425 5418 5410 5401
5458 5460 5465 5469 5473 5477 5481 5484 5487 5490 5493 5495 5498 5500 5503 5505 5506 5506 5507 5506 5506 5505 5504 5501 5499 5496 5492 5487 5483 5479 5473 5469 5463 5457 5450 5444 5438 5431 5422 5414 5406 5397 5388 5378
5444 5448 5452 5458 5464 5469 5474 5478 5482 5485 5488 5490 5493 5496 5498 5500 5501 5502 5502 5502 5501 5500 5497 5495 5492 5488 5483 5478 5474 5469 5463 5457 5451 5444 5438 5430 5423 5415 5406 5396 5385 5374 5363 5352
5433 5439 5445 5451 5457 5463 5469 5474 5477 5480 5483 5486 5489 5491 5493 5494 5496 5496 5497 5496 5495 5493 5490 5487 5484 5479 5474 5469 5464 5458 5452 5445 5438 5431 5424 5416 5406 5396 5386 5376 5365 5353 5340 5329
5433 5438 5443 5449 5454 5460 5465 5469 5473 5476 5479 5481 5484 5486 5488 5489 5491 5491 5491 5490 5488 5485 5482 5478 5475 5469 5464 5459 5453 5447 5440 5432 5425 5416 5408 5399 5390 5378 5367 5355 5343 5331 5320 5309
5437 5441 5444 5448 5452 5457 5461 5465 5468 5472 5474 5477 5479 5481 5483 5484 5485 5485 5484 5482 5480 5477 5474 5470 5464 5459 5454 5448 5442 5434 5427 5419 5411 5402 5393 5383 5371 5360 5347 5334 5322 5311 5301 5290
5441 5443 5446 5449 5452 5455 5458 5461 5465 5467 5470 5472 5475 5477 5478 5479 5479 5478 5477 5475 5472 5469 5465 5460 5454 5449 5443 5436 5429 5421 5414 5406 5397 5387 5376 5365 5354 5341 5328 5316 5304 5292 5281 5270
5443 5444 5446 5449 5451 5453 5456 5458 5461 5463 5466 5468 5470 5471 5472 5472 5472 5471 5469 5466 5463 5460 5455 5450 5444 5438 5431 5424 5416 5409 5400 5391 5382 5371 5360 5348 5336 5323 5311 5299 5288 5276 5264 5253
5443 5444 5446 5447 5449 5451 5453 5456 5458 5460 5462 5464 5465 5465 5466 5465 5464 5463 5460 5458 5454 5450 5445 5439 5433 5426 5419 5412 5404 5396 5387 5377 5367 5356 5345 5332 5320 5307 5296 5284 5273 5261 5249 5237
5443 5443 5444 5445 5447 5449 5450 5452 5454 5455 5457 5458 5459 5459 5458 5458 5457 5454 5452 5449 5444 5440 5434 5428 5422 5415 5407 5400 5391 5382 5372 5362 5352 5341 5329 5317 5305 5293 5282 5271 5259 5247 5235 5222